CW7229 Weather Reports


Display with metric or nautical units.
time (UTC)temp
F
wind
direction
speed
MPH
gust
MPH
rain 1hr
in
rain 24hr
in
rain mn
in
humidity
%
barometer
mb
20260510080117 60 103 0.0 6.0 0.00 0.00 0.00 37 1011.5
20260510073117 57 75 2.0 5.0 0.00 0.00 0.00 40 1011.6
20260510070117 55 153 4.0 7.0 0.00 0.00 0.00 44 1011.7
20260510063117 52 214 4.0 5.0 0.00 0.00 0.00 50 1011.7
20260510060136 50 151 3.0 6.0 0.00 0.00 0.00 54 1011.8
20260510050136 46 104 0.0 0.0 0.00 0.00 0.00 61 1012.9
20260510043116 46 104 0.0 0.0 0.00 0.00 0.00 60 1012.9
20260510040117 46 104 0.0 0.0 0.00 0.00 0.00 60 1012.9
20260510033116 46 99 0.0 0.0 0.00 0.00 0.00 59 1012.9
20260510030116 45 99 0.0 0.0 0.00 0.00 0.00 58 1012.9
20260510023116 46 99 0.0 0.0 0.00 0.00 0.00 59 1012.9
20260510013116 45 127 0.0 0.0 0.00 0.00 0.00 56 1013.9
20260510010120 45 127 0.0 0.0 0.00 0.00 0.00 55 1013.9
20260510000116 46 140 0.0 0.0 0.00 0.00 0.00 52 1014.9
20260509230116 47 128 0.0 3.0 0.00 0.00 0.00 50 1014.9
20260509220122 49 108 0.0 0.0 0.00 0.00 0.00 48 1015.8
20260509213116 49 85 0.0 0.0 0.00 0.00 0.00 47 1015.8
20260509203116 51 86 0.0 3.0 0.00 0.00 0.00 42 1015.8
20260509193116 54 130 0.0 0.0 0.00 0.00 0.00 38 1015.7
20260509190116 56 128 2.0 4.0 0.00 0.00 0.00 36 1015.7
20260509183115 57 173 4.0 8.0 0.00 0.00 0.00 35 1015.7
20260509180135 58 127 4.0 8.0 0.00 0.00 0.00 33 1015.6
20260509173116 59 149 5.0 8.0 0.00 0.00 0.00 31 1015.6
20260509170134 60 119 1.0 7.0 0.00 0.00 0.00 30 1015.6
20260509160115 62 123 5.0 8.0 0.00 0.00 0.00 29 1015.5
20260509153115 61 177 4.0 8.0 0.00 0.00 0.00 29 1016.6
20260509150115 61 196 5.0 6.0 0.00 0.00 0.00 29 1016.6
20260509140115 62 120 5.0 8.0 0.00 0.00 0.00 30 1016.6
20260509133115 61 95 4.0 6.0 0.00 0.00 0.00 29 1017.6
20260509123115 60 114 4.0 7.0 0.00 0.00 0.00 33 1017.6
20260509113115 61 221 3.0 8.0 0.00 0.00 0.00 35 1017.6
20260509110115 60 133 4.0 6.0 0.00 0.00 0.00 36 1018.6
20260509103115 60 142 3.0 7.0 0.00 0.00 0.00 36 1018.6
20260509100115 59 127 4.0 6.0 0.00 0.00 0.00 36 1018.6
20260509093115 59 139 4.0 5.0 0.00 0.00 0.00 37 1018.6
20260509083115 56 213 4.0 6.0 0.00 0.00 0.00 42 1018.7